OPS 4682 DEB, 18479

Orbit data source: Space-Track

OPS 4682 DEB, 18479 is space debris in LEO originally from a launch on Sat, 03 Apr 1965 UTC launched from the Air Force Western Test Range (AFWTR). Debris objects in space refer to the collection of defunct objects orbiting the Earth. Examples of debris include non-operational satellites, rocket bodies, and fragments generated from explosions, collisions, or faulty payload assembly.

Loading next visibility...
Identifier
18479, 1965-027AC
Orbit
LEO
Last TLE update
21 hours ago
Origin
Manufacturer
Unknown
Mission
Spacecraft
Bus & Motor
Unknown
Mass
Unknown
Launch date (UTC)
1965-04-03 (60 years ago)
Launch vehicle
Unknown
Launch site
Air Force Western Test Range (AFWTR)
Object type
Payload
Rocket body
Debris
Shape & HBR
Unknown
Radar Cross Section
Small (<0.1 m²)

Expand to show TLE details & history

TLE from 21 hours ago
0 OPS 4682 DEB
1 18479U 65027AC  25128.39818512 -.00000117  00000-0 -42889-3 0  9999
2 18479  90.2408 357.0166 0030981  49.4249 134.0316 12.97400198895264
Epoch: 2025-05-08T09:33Z
Definitive object data (Epoch: 2025-05-08T09:33:23.194Z)
Latitude
-3.84475°
Longitude
167.1846°
Altitude
1,292.266 km
Speed
7.202 km/s
True Right ascension
11h 48m 00s
True Declination
-3° 49' 24"
Sunlit
Object was in full shadow at TLE epoch
Visualization TLE readout
Latitude
-76.47898°
Longitude
-11.78361°
Altitude
1,312.976 km
Speed
7.194 km/s
Apparent Right ascension
01h 52m 19s
Apparent Declination
-61° 03' 12"
Sunlit
Object is in daylight
Visualization observer readout
Local Sidereal Time
14:34:48
Azimuth
166.301° S
Elevation
-67.874°
Doppler factor
1
Orbital elements
Apogee altitude
1,293.114 km
Perigee altitude
1,245.728 km
Semi-major axis
7,647.558 km
Eccentricity
0.0030981
Inclination
90.2408°
RAAN
357.0166°
Arg. of periapsis
49.4249°
True anomaly
134.28616°
Mean anomaly
134.0316°
Eccentric anomaly
134.15895°
Mean motion
3.24533 °/min
BSTAR
-0.00042889
Orbital period
110.93 mins
Loading maneuver chart data...
Loading SW <> Apogee altitude chart data...
Loading historical data...
Loading historical data...
Loading historical data...
Loading historical data...
Loading historical data...
Loading historical data...
Loading historical data...

OPS 4682 DEB Visibility forecast

Observer location: undefined°, undefined°

Span
Click to sort rows by Start time (UTC) header in descending order
Start Az.
Max El. time (UTC)
Max El. Az.
Max El.
End time (UTC)
End Az.
11 mins2025-05-09 14:20:58.149Z129.596° SE2025-05-09 14:26:58.149Z70.471° E26.753°2025-05-09 14:31:58.149Z22.103° NNE
13 mins2025-05-09 16:10:58.149Z202.433° SSW2025-05-09 16:16:58.149Z271.624° WNW37.11°2025-05-09 16:23:58.149Z346.194° N
9 mins2025-05-10 01:58:58.149Z43.188° NE2025-05-10 02:02:58.149Z81.222° E19.695°2025-05-10 02:07:58.149Z123.687° SE
13 mins2025-05-10 03:47:58.149Z356.189° N2025-05-10 03:53:58.149Z280.676° WNW43.31°2025-05-10 04:00:58.149Z195.426° SSW
|